"2009-10-02 00:00:00",1290526,21.96,323,4.548,1.773,11.33,102.6938,6.175,7.474,22.54,0,110.1,13.37,6.95,285.0
"2009-10-02 00:00:30",1290527,22.07,321,3.563,1.082,11.52,102.6959,6.18,7.479,21.77,0,110.1,13.37,6.95,283.0
"2009-10-02 00:01:00",1290528,19.93,321.3,3.324,1.026,11.41,102.6988,6.188,7.463,21.81,0,110.1,13.37,6.96,283.3
"2009-10-02 00:01:30",1290529,18.89,322.6,3.692,1.235,11.38,102.6988,6.188,7.474,22.26,0,110.1,13.37,6.96,284.6
"2009-10-02 00:02:00",1290530,21.2,320.3,5.132,2.398,11.31,102.6991,6.189,7.459,22.5,0,110.1,13.38,6.96,282.3
"2009-10-02 00:02:30",1290531,20.63,327.4,5.056,1.451,11.61,102.7005,6.192,7.49,21.98,0,110.1,13.38,6.97,289.4
"2009-10-02 00:03:00",1290532,21.92,321.4,3.676,2.253,11.36,102.7025,6.198,7.452,21.8,0,110.1,13.38,6.97,283.4
"2009-10-02 00:03:30",1290533,21.98,323.4,4.093,0.88,11.66,102.702,6.196,7.482,21.86,0,110.1,13.38,6.97,285.4
"2009-10-02 00:04:00",1290534,21.79,324.2,3.11,1.037,11.47,102.7078,6.211,7.478,22.2,0,110.1,13.38,6.98,286.2
"2009-10-02 00:04:30",1290535,23.22,323.4,3.794,0.725,11.5,102.7069,6.209,7.495,22.34,0,110.1,13.38,6.98,285.4
"2009-10-02 00:05:00",1290536,22.43,321.5,4.197,1.106,11.51,102.708,6.212,7.504,22.2,0,110.1,13.38,6.99,283.5
"2009-10-02 00:05:30",1290537,21.1,325.4,3.752,1.171,11.58,102.708,6.212,7.486,22.56,0,110.1,13.38,6.99,287.4
"2009-10-02 00:06:00",1290538,22.03,325.5,2.837,1.463,11.47,102.7089,6.214,7.474,22.77,0,110.1,13.38,6.99,287.5
"2009-10-02 00:06:30",1290539,21.53,326,3.461,0.968,11.46,102.7092,6.215,7.483,22.81,0,110.1,13.38,6.99,288.0
"2009-10-02 00:07:00",1290540,21.93,323.1,3.072,0.883,11.54,102.7109,6.219,7.485,22.77,0,110.1,13.38,6.99,285.1
"2009-10-02 00:07:30",1290541,22.67,320.1,3.908,0.785,11.82,102.7107,6.218,7.487,22.16,0,110.1,13.38,6.99,282.1
"2009-10-02 00:08:00",1290542,21.48,320.3,4.304,0.914,11.82,102.7107,6.218,7.496,21.7,0,110.1,13.38,6.99,282.3
"2009-10-02 00:08:30",1290543,22.48,323.5,3.051,0.875,11.63,102.7104,6.218,7.486,21.99,0,110.1,13.38,6.99,285.5
"2009-10-02 00:09:00",1290544,20.86,319.7,3.35,1.116,11.45,102.7107,6.218,7.48,22.23,0,110.1,13.38,6.99,281.7
"2009-10-02 00:09:30",1290545,20.57,321.3,2.951,0.859,11.59,102.7109,6.219,7.487,22.24,0,110.1,13.37,6.99,283.3
"2009-10-02 00:10:00",1290546,21.73,323.3,3.369,1.22,11.52,102.7109,6.219,7.472,22.38,0,110.1,13.37,6.99,285.3
"2009-10-02 00:10:30",1290547,22.1,326.2,4.041,0.87,11.69,102.7109,6.219,7.49,22.16,0,110.1,13.37,6.99,288.2
"2009-10-02 00:11:00",1290548,19.84,326,4.545,1.144,11.63,102.7109,6.219,7.483,22.27,0,110.1,13.37,6.99,288.0
"2009-10-02 00:11:30",1290549,21.22,323.6,3.308,0.855,11.86,102.7109,6.219,7.478,22.05,0,110.1,13.37,6.99,285.6
"2009-10-02 00:12:00",1290550,20.88,321.9,4.105,0.652,11.62,102.7109,6.219,7.476,21.74,0,110.1,13.37,6.99,283.9
"2009-10-02 00:12:30",1290551,20.38,320.1,4.326,0.851,11.73,102.7109,6.219,7.5,21.93,0,110.1,13.37,6.99,282.1
"2009-10-02 00:13:00",1290552,20.45,321.4,4.681,1.005,11.69,102.7109,6.219,7.492,21.9,0,110.1,13.37,6.99,283.4
"2009-10-02 00:13:30",1290553,19.73,321.8,4.183,0.899,11.7,102.7109,6.219,7.49,22.01,0,110.1,13.37,6.99,283.8
"2009-10-02 00:14:00",1290554,20.83,326.7,4.23,1.136,11.53,102.7109,6.219,7.485,22.17,0,110.1,13.37,6.99,288.7
"2009-10-02 00:14:30",1290555,21.41,325.6,2.937,1.199,11.65,102.7109,6.219,7.504,22.11,0,110.1,13.37,6.99,287.6
"2009-10-02 00:15:00",1290556,20.71,324.4,2.55,1.185,11.53,102.7109,6.219,7.498,22.08,0,110.1,13.38,6.99,286.4
"2009-10-02 00:15:30",1290557,21.5,324.6,3.35,1.059,11.75,102.7109,6.219,7.495,22.17,0,110.1,13.38,6.99,286.6
"2009-10-02 00:15:30",1290558,19.19,324.5,5.757,1.014,11.82,102.7109,6.219,7.517,22.15,0,110.1,13.38,6.99,286.5
"2009-10-02 00:16:00",1290559,20.01,322,5.824,0.841,11.88,102.7109,6.219,7.504,22.58,0,110.1,13.39,6.99,284.0
"2009-10-02 00:16:30",1290560,20.54,327.3,3.195,1.287,11.59,102.7109,6.219,7.518,22.66,0,110.1,13.38,6.99,289.3
"2009-10-02 00:17:00",1290561,21.46,324.1,3.758,0.833,11.85,102.7109,6.219,7.499,22.3,0,110.1,13.38,6.99,286.1
"2009-10-02 00:17:30",1290562,22.27,323.6,4.694,0.804,12.03,102.7109,6.219,7.518,22.34,0,110,13.39,6.99,285.6
"2009-10-02 00:18:00",1290563,20.66,330.9,4.489,1.522,11.92,102.7109,6.219,7.504,22.24,0,110,13.38,6.99,292.9
"2009-10-02 00:18:30",1290564,18.3,329.7,4.762,0.847,11.68,102.7109,6.219,7.513,22.64,0,110,13.39,6.99,291.7
"2009-10-02 00:19:00",1290565,18.69,330.4,4.004,0.819,11.59,102.7109,6.219,7.497,22.72,0,110,13.39,6.99,292.4
"2009-10-02 00:19:30",1290566,18.77,333.2,3.268,1,11.56,102.7109,6.219,7.474,22.92,0,110,13.39,6.99,295.2
"2009-10-02 00:20:00",1290567,19.83,330,3.274,1.192,11.66,102.7109,6.219,7.482,22.87,0,110,13.39,6.99,292.0
"2009-10-02 00:20:30",1290568,18.23,330.4,4.924,1.306,11.46,102.7098,6.216,7.495,22.92,0,110,13.39,6.99,292.4
"2009-10-02 00:21:00",1290569,18.25,327,5.637,1.141,11.53,102.7053,6.205,7.504,23.02,0,110,13.39,6.98,289.0
"2009-10-02 00:21:30",1290570,18.22,330,5.888,0.956,11.63,102.6994,6.189,7.478,23.13,0,110,13.39,6.96,292.0
"2009-10-02 00:22:00",1290571,17.64,334.6,4.223,1.326,11.4,102.6827,6.147,7.475,23.18,0,110,13.38,6.92,296.6
"2009-10-02 00:22:30",1290572,16.05,331,6.334,0.853,11.35,102.6776,6.134,7.48,23.27,0,110,13.38,6.91,293.0
"2009-10-02 00:23:00",1290573,17.37,324.6,7.591,0.844,11.39,102.677,6.132,7.466,23.31,0,110,13.38,6.91,286.6
"2009-10-02 00:23:30",1290574,16.38,324.7,4.477,1.388,11.48,102.677,6.132,7.449,23.38,0,110,13.38,6.91,286.7
"2009-10-02 00:24:00",1290575,15.72,327.3,8.6,1.03,11.43,102.677,6.132,7.46,23.42,0,110,13.38,6.91,289.3
"2009-10-02 00:24:30",1290576,14.01,326.4,4.091,0.938,11.26,102.672,6.119,7.43,23.39,0,110,13.38,6.89,288.4
"2009-10-02 00:25:00",1290577,12.71,328.5,5.57,0.866,11.03,102.6497,6.062,7.435,23.43,0,110,13.38,6.84,290.5
"2009-10-02 00:25:30",1290578,14.23,333,7.184,1.057,10.95,102.6432,6.046,7.404,23.56,0,110,13.38,6.82,295.0
"2009-10-02 00:26:00",1290579,13.89,338.7,5.487,0.771,11.02,102.6432,6.046,7.405,23.64,0,110,13.38,6.82,300.7
"2009-10-02 00:26:30",1290580,11.61,332.1,5.093,0.993,10.67,102.6432,6.046,7.39,23.71,0,110,13.38,6.82,294.1
"2009-10-02 00:27:00",1290581,12.96,321.7,6.32,1.168,10.56,102.6338,6.022,7.379,23.76,0,110,13.39,6.80,283.7
"2009-10-02 00:27:30",1290582,12.21,318.7,4.575,0.831,10.58,102.6101,5.961,7.348,23.8,0,110,13.39,6.73,280.7
"2009-10-02 00:28:00",1290583,12.2,325.1,4.489,0.796,10.32,102.6093,5.959,7.339,23.9,0,110,13.39,6.73,287.1
"2009-10-02 00:28:30",1290584,12.57,327.8,4.329,0.837,10.38,102.6093,5.959,7.333,24,0,110,13.39,6.73,289.8
"2009-10-02 00:29:00",1290585,12.99,335.7,4.107,0.878,10.38,102.6,5.936,7.313,24.11,0,110,13.39,6.71,297.7
"2009-10-02 00:29:30",1290586,15.24,331.4,6.034,1.239,10.84,102.5825,5.891,7.294,23.78,0,110,13.39,6.66,293.4
"2009-10-02 00:30:00",1290587,16.44,324,3.059,1.053,10.61,102.5789,5.882,7.287,23.37,0,110,13.39,6.65,286.0
"2009-10-02 00:30:30",1290588,15.19,322.7,4.517,0.88,10.91,102.5786,5.881,7.26,23.45,0,110,13.4,6.65,284.7
"2009-10-02 00:31:00",1290589,14.85,323.6,6.153,1.009,11.06,102.5755,5.873,7.251,23.47,0,110,13.4,6.65,285.6
"2009-10-02 00:31:30",1290590,13.09,336.1,5.526,1.149,10.93,102.5624,5.839,7.224,23.56,0,110,13.4,6.61,298.1
"2009-10-02 00:32:00",1290591,15.79,340.3,6.681,1.71,10.89,102.5531,5.816,7.212,23.76,0,110,13.4,6.59,302.3
"2009-10-02 00:32:30",1290592,13.08,329.1,7.516,1.01,10.71,102.5557,5.822,7.186,23.93,0,110,13.4,6.59,291.1
"2009-10-02 00:33:00",1290593,12.63,326.3,5.329,1.206,10.72,102.5592,5.831,7.192,24,0,110,13.4,6.60,288.3
"2009-10-02 00:33:30",1290594,12.82,329,4.191,1.002,10.7,102.5638,5.843,7.168,24.06,0,110,13.4,6.62,291.0
"2009-10-02 00:34:00",1290595,12.22,340.6,4.599,0.951,10.59,102.5685,5.855,7.163,24.15,0,110,13.4,6.63,302.6
"2009-10-02 00:34:30",1290596,13.47,336.2,3.565,0.942,10.43,102.5639,5.843,7.154,24.33,0,110,13.4,6.62,298.2
"2009-10-02 00:35:00",1290597,13.78,334.9,5.189,1.435,10.46,102.5509,5.81,7.14,24.35,0,110,13.4,6.58,296.9
"2009-10-02 00:35:30",1290598,13.06,327.8,5.037,0.93,10.62,102.5468,5.8,7.127,24.16,0,110,13.4,6.57,289.8
"2009-10-02 00:36:00",1290599,15.27,327.6,5.399,1.348,10.8,102.5406,5.784,7.127,23.76,0,109.9,13.4,6.56,289.6
"2009-10-02 00:36:30",1290600,12.21,319.1,5.779,1.342,10.63,102.5415,5.786,7.13,23.92,0,110,13.4,6.56,281.1
"2009-10-02 00:37:00",1290601,12.76,340.4,7.331,1.044,10.58,102.5421,5.788,7.106,24.28,0,110,13.4,6.56,302.4
"2009-10-02 00:37:30",1290602,13.63,342.4,4.833,0.867,10.45,102.5424,5.788,7.086,24.52,0,110,13.4,6.56,304.4
"2009-10-02 00:38:00",1290603,14.01,342.6,4.969,0.937,10.68,102.5424,5.788,7.082,24.21,0,110,13.4,6.56,304.6
"2009-10-02 00:38:30",1290604,16.84,333.2,3.701,1.23,10.54,102.5424,5.788,7.078,24.02,0,110,13.4,6.56,295.2
"2009-10-02 00:39:00",1290605,15.82,334,4.603,1.014,10.75,102.5424,5.788,7.081,24.23,0,110,13.4,6.56,296.0
"2009-10-02 00:39:30",1290606,14.8,338.2,5.269,1.156,10.8,102.5415,5.786,7.068,24.43,0,110,13.4,6.56,300.2
"2009-10-02 00:40:00",1290607,14.08,339,4.295,1.028,10.82,102.537,5.775,7.064,24.42,0,110,13.4,6.55,301.0
"2009-10-02 00:40:30",1290608,15.85,341.3,4.572,0.966,11.01,102.5331,5.765,7.061,24.22,0,110,13.4,6.54,303.3
"2009-10-02 00:41:00",1290609,15.13,335.8,5.239,0.988,10.87,102.5297,5.756,7.065,23.95,0,110,13.4,6.53,297.8
"2009-10-02 00:41:30",1290610,14.28,340.9,7.518,0.836,10.85,102.5274,5.75,7.051,23.97,0,110,13.4,6.52,302.9
"2009-10-02 00:42:00",1290611,14.72,350.7,4.645,0.932,11.11,102.5282,5.752,7.066,23.92,0,110,13.4,6.52,312.7
"2009-10-02 00:42:30",1290612,12.08,331.7,6.176,0.962,10.59,102.5274,5.75,7.063,24.04,0,110,13.4,6.52,293.7
"2009-10-02 00:43:00",1290613,10.07,332.3,5.029,0.884,10.48,102.524,5.741,7.051,24.19,0,110,13.4,6.51,294.3
"2009-10-02 00:43:30",1290614,10.14,326,4.022,1.029,10.26,102.5192,5.729,7.035,24.33,0,110,13.41,6.50,288.0
"2009-10-02 00:44:00",1290615,10.39,321.5,4.083,1.349,10.17,102.5136,5.715,7.058,24.49,0,109.9,13.41,6.49,283.5
"2009-10-02 00:44:30",1290616,10.86,328.8,5.484,1.071,9.73,102.509,5.703,7.047,24.54,0,109.9,13.41,6.48,290.8
"2009-10-02 00:45:00",1290617,9.03,325.2,12.1,1.343,7.198,102.5085,5.702,6.967,24.58,0,109.9,13.42,6.47,287.2
"2009-10-02 00:45:30",1290618,8.46,318.2,14.17,1.593,7.723,102.5085,5.702,6.824,24.52,0,109.9,13.42,6.47,280.2
"2009-10-02 00:46:00",1290619,7.064,324.2,8.28,1.953,7.931,102.5088,5.703,6.862,24.62,0,109.9,13.42,6.47,286.2
"2009-10-02 00:46:30",1290620,9.21,332,9.03,1.057,9.99,102.5088,5.703,6.958,24.82,0,109.9,13.42,6.47,294.0
"2009-10-02 00:47:00",1290621,8.79,343.8,8.51,1.023,11.14,102.5088,5.703,7.017,24.98,0,110,13.42,6.47,305.8
"2009-10-02 00:47:30",1290622,9.17,337.4,4.605,1.045,10.74,102.5082,5.701,7.003,24.97,0,109.9,13.42,6.47,299.4
"2009-10-02 00:48:00",1290623,10.13,333.1,8.05,1.769,9.7,102.5051,5.693,6.968,24.96,0,109.9,13.42,6.47,295.1
"2009-10-02 00:48:30",1290624,12.67,334.4,5.874,1.622,8.99,102.4919,5.659,6.896,24.56,0,110,13.42,6.43,296.4
"2009-10-02 00:49:00",1290625,13.35,336.5,8,1.187,9.94,102.48,5.629,6.911,24.51,0,109.9,13.42,6.40,298.5
"2009-10-02 00:49:30",1290626,13.66,336.5,6.518,0.949,10.78,102.4809,5.631,6.992,24.33,0,109.9,13.42,6.40,298.5
"2009-10-02 00:50:00",1290627,12.8,335.5,5.146,0.777,11.04,102.483,5.637,6.983,24.34,0,109.9,13.43,6.41,297.5
"2009-10-02 00:50:30",1290628,11.44,339.5,4.773,0.903,10.64,102.4841,5.64,6.971,24.26,0,109.9,13.43,6.41,301.5
"2009-10-02 00:51:00",1290629,10.85,349.7,9.58,0.996,10.54,102.485,5.642,6.97,24.74,0,109.9,13.43,6.41,311.7
"2009-10-02 00:51:30",1290630,11.71,344.2,5.533,0.968,10.17,102.4879,5.649,6.967,24.77,0,109.9,13.43,6.42,306.2
"2009-10-02 00:52:00",1290631,12.96,340.6,4.529,1.108,10.17,102.4896,5.654,6.957,24.66,0,109.9,13.42,6.43,302.6
"2009-10-02 00:52:30",1290632,14.42,343.4,4.955,0.803,10.34,102.4928,5.662,6.963,24.42,0,109.9,13.42,6.43,305.4
"2009-10-02 00:53:00",1290633,13.19,341.9,5.077,0.877,10.39,102.4948,5.667,6.977,24.18,0,109.9,13.43,6.44,303.9
"2009-10-02 00:53:30",1290634,12.11,345.4,5.272,1.099,10.14,102.498,5.675,6.963,24.2,0,109.9,13.43,6.45,307.4
"2009-10-02 00:54:00",1290635,11.66,346.1,4.187,0.711,10.34,102.4998,5.68,6.961,24.46,0,109.9,13.42,6.45,308.1
"2009-10-02 00:54:30",1290636,9.73,338.8,7.74,1.134,9,102.5015,5.684,6.916,24.33,0,109.9,13.42,6.46,300.8
"2009-10-02 00:55:00",1290637,9.85,336.6,6.048,1.361,8.64,102.5038,5.69,6.861,24.47,0,109.9,13.42,6.46,298.6
"2009-10-02 00:55:30",1290638,9.4,326.8,2.703,0.254,5.797,102.505,5.693,6.67,24.21,0,109.9,13.46,6.46,288.8
"2009-10-02 00:56:00",1290639,11.34,336.5,7.313,1.502,9,102.5084,5.702,6.893,24.22,0,109.9,13.42,6.47,298.5
"2009-10-02 00:56:30",1290640,11.94,340.5,5.59,1.14,11.04,102.5085,5.702,6.948,24.55,0,109.9,13.42,6.47,302.5
"2009-10-02 00:57:00",1290641,10.66,341.9,7.309,0.994,11.11,102.5079,5.7,6.958,24.64,0,109.9,13.42,6.47,303.9
"2009-10-02 00:57:30",1290642,10.56,335.1,4.36,0.794,11.11,102.5068,5.697,6.946,24.51,0,109.9,13.42,6.47,297.1
"2009-10-02 00:58:00",1290643,11.14,333.7,4.708,0.784,10.59,102.5065,5.697,6.901,24.46,0,109.9,13.43,6.47,295.7
"2009-10-02 00:58:30",1290644,9.1,330.1,7.538,1.228,8.81,102.5034,5.689,6.846,24.43,0,110,13.42,6.46,292.1
"2009-10-02 00:59:00",1290645,7.617,330,3.02,0.902,6.509,102.502,5.685,6.836,24.49,0,109.9,13.43,6.46,292.0
"2009-10-02 00:59:30",1290646,9.62,335,8.08,1.01,9.66,102.5008,5.682,6.864,24.64,0,109.9,13.43,6.45,297.0
"2009-10-02 01:00:00",1290647,9.52,336.5,8.68,1.044,9.49,102.4969,5.672,6.881,24.51,0,109.9,13.43,6.44,298.5
"2009-10-02 01:00:30",1290648,9.27,333.9,6.446,1.142,10.27,102.4893,5.653,6.912,24.68,0,109.9,13.43,6.42,295.9
"2009-10-02 01:01:00",1290649,9.31,336.3,8.22,1.482,9.46,102.4805,5.63,6.898,24.86,0,109.9,13.43,6.40,298.3
"2009-10-02 01:01:30",1290650,10.48,331.1,10.8,1.204,9.25,102.4754,5.617,6.842,24.72,0,109.9,13.43,6.39,293.1
"2009-10-02 01:02:00",1290651,9.9,342.6,7.245,1.098,10.63,102.4754,5.617,6.918,24.93,0,109.9,13.44,6.39,304.6
"2009-10-02 01:02:30",1290652,8.44,336.1,7.259,1.253,9.65,102.4754,5.617,6.813,24.92,0,109.9,13.44,6.39,298.1
"2009-10-02 01:03:00",1290653,8.67,331.2,6.584,1.194,8.51,102.4754,5.617,6.78,24.9,0,109.9,13.44,6.39,293.2
"2009-10-02 01:03:30",1290654,9.39,333.9,4.917,1.159,9.06,102.4754,5.617,6.804,24.8,0,109.9,13.44,6.39,295.9
"2009-10-02 01:04:00",1290655,9.34,339.3,6.599,1.29,9.95,102.4754,5.617,6.858,24.75,0,109.9,13.44,6.39,301.3
"2009-10-02 01:04:30",1290656,10.2,337.2,6.186,1.386,9.71,102.4754,5.617,6.78,24.62,0,109.9,13.44,6.39,299.2
"2009-10-02 01:05:00",1290657,11.32,335.6,6.957,1.207,10.2,102.474,5.614,6.881,24.73,0,109.9,13.44,6.39,297.6
"2009-10-02 01:05:30",1290658,12.21,329,6.245,1.122,10.49,102.472,5.609,6.911,24.47,0,109.9,13.44,6.38,291.0
"2009-10-02 01:06:00",1290659,9.03,326.3,5.618,1.168,10.75,102.4726,5.61,6.906,24.38,0,109.9,13.44,6.38,288.3
"2009-10-02 01:06:30",1290660,9.09,333.1,5.644,0.735,10.59,102.4698,5.603,6.905,24.45,0,109.9,13.44,6.37,295.1
"2009-10-02 01:07:00",1290661,7.735,320.8,4.476,1.854,7.589,102.4681,5.599,6.739,24.4,0,109.9,13.45,6.37,282.8
"2009-10-02 01:07:30",1290662,10.29,316.9,4.113,1.027,6.808,102.4672,5.596,6.702,24.28,0,109.9,13.44,6.37,278.9
"2009-10-02 01:08:00",1290663,11.01,328.6,5.534,1.203,10.17,102.4667,5.595,6.798,24.44,0,109.9,13.45,6.37,290.6
"2009-10-02 01:08:30",1290664,10.88,322.8,6.447,1.216,10.73,102.4644,5.589,6.879,24.5,0,109.9,13.45,6.36,284.8
"2009-10-02 01:09:00",1290665,10.98,325.5,3.587,0.821,11.23,102.4661,5.594,6.892,24.37,0,109.9,13.45,6.37,287.5
"2009-10-02 01:09:30",1290666,9.54,331.8,5.853,1.21,10.98,102.4661,5.594,6.925,24.7,0,109.9,13.45,6.37,293.8
"2009-10-02 01:10:00",1290667,7.608,336.5,6.928,1.223,10.51,102.4644,5.589,6.905,24.95,0,109.9,13.45,6.36,298.5
"2009-10-02 01:10:30",1290668,7.486,338.8,8.48,0.846,8.8,102.4635,5.587,6.828,25.03,0,109.9,13.45,6.36,300.8
"2009-10-02 01:11:00",1290669,6.941,323.5,12.44,0.973,7.458,102.4582,5.573,6.672,24.86,0,109.9,13.44,6.34,285.5
"2009-10-02 01:11:30",1290670,6.398,316,4.737,0.326,6.115,102.4534,5.561,6.608,24.72,0,109.9,13.47,6.33,278.0
"2009-10-02 01:12:00",1290671,8.56,326.9,6.217,0.885,10.01,102.444,5.537,6.8,24.79,0,109.9,13.45,6.31,288.9
"2009-10-02 01:12:30",1290672,8.32,323.4,4.277,0.822,11.15,102.4418,5.531,6.889,24.87,0,109.9,13.45,6.30,285.4
"2009-10-02 01:13:00",1290673,7.714,328.6,7.52,0.71,11.19,102.4415,5.531,6.901,24.9,0,109.9,13.45,6.30,290.6
"2009-10-02 01:13:30",1290674,7.557,326.3,5.119,0.874,10.59,102.4415,5.531,6.903,24.93,0,109.9,13.44,6.30,288.3
"2009-10-02 01:14:00",1290675,6.37,322.9,8.53,1.04,8.76,102.4415,5.531,6.765,24.87,0,109.9,13.44,6.30,284.9
"2009-10-02 01:14:30",1290676,6.319,319.9,3.731,0.662,5.795,102.4415,5.531,6.576,24.68,0,109.9,13.48,6.30,281.9
"2009-10-02 01:15:00",1290677,8.04,319,6.341,1.571,8.05,102.4418,5.531,6.706,24.66,0,109.9,13.45,6.30,281.0
"2009-10-02 01:15:30",1290678,9.3,322.8,6.609,1.494,10.23,102.4415,5.531,6.855,24.73,0,109.9,13.45,6.30,284.8
"2009-10-02 01:16:00",1290679,9.59,333.9,6.211,0.922,11.5,102.4339,5.511,6.874,24.75,0,109.9,13.45,6.28,295.9
"2009-10-02 01:16:30",1290680,8.38,338.3,8.24,1.036,11.01,102.4246,5.488,6.872,24.96,0,109.9,13.45,6.26,300.3
"2009-10-02 01:17:00",1290681,8.27,341.1,7.424,1.336,9.7,102.4144,5.462,6.803,25.11,0,109.9,13.45,6.23,303.1
"2009-10-02 01:17:30",1290682,8.32,329.9,14.41,1.065,7.53,102.4099,5.45,6.593,24.65,0,109.9,13.45,6.22,291.9
"2009-10-02 01:18:00",1290683,8.87,330.9,11.85,1.519,8.16,102.4163,5.466,6.662,24.38,0,109.9,13.45,6.24,292.9
"2009-10-02 01:18:30",1290684,8.53,331.5,8.2,1.272,8.08,102.4166,5.467,6.664,24.54,0,109.9,13.46,6.24,293.5
"2009-10-02 01:19:00",1290685,8.07,324.1,5.983,1.098,10.03,102.4166,5.467,6.795,24.8,0,109.9,13.46,6.24,286.1
"2009-10-02 01:19:30",1290686,7.737,311.5,7.641,1.03,10.76,102.4189,5.473,6.815,25,0,109.9,13.46,6.24,273.5
"2009-10-02 01:20:00",1290687,6.706,310.6,16.61,1.282,9.53,102.4229,5.483,6.75,25.08,0,109.9,13.46,6.25,272.6
"2009-10-02 01:20:30",1290688,6.47,320.7,10.96,1.597,8.01,102.4241,5.486,6.605,25.04,0,109.9,13.46,6.26,282.7
"2009-10-02 01:21:00",1290689,5.948,326.1,13.76,0.99,6.832,102.4258,5.491,6.627,25.03,0,109.9,13.46,6.26,288.1
"2009-10-02 01:21:30",1290690,7.262,317.7,6.282,0.808,7.752,102.4279,5.496,6.553,24.96,0,109.9,13.46,6.27,279.7
"2009-10-02 01:22:00",1290691,8.2,323.7,6.825,1.245,8.92,102.4305,5.503,6.721,25.01,0,109.9,13.46,6.27,285.7
"2009-10-02 01:22:30",1290692,8.74,330.2,7.958,1.021,11.06,102.4319,5.506,6.775,24.96,0,109.9,13.46,6.28,292.2
"2009-10-02 01:23:00",1290693,8.57,331.9,6.789,1.237,10.87,102.4348,5.514,6.767,24.83,0,109.9,13.46,6.28,293.9
"2009-10-02 01:23:30",1290694,9.32,333,5.637,0.85,10.88,102.4365,5.518,6.796,24.83,0,109.9,13.46,6.29,295.0
"2009-10-02 01:24:00",1290695,9.23,324.8,8.1,1.193,8.69,102.4383,5.523,6.643,24.61,0,109.8,13.46,6.29,286.8
"2009-10-02 01:24:30",1290696,8.33,324.7,15.33,0.913,7.88,102.4383,5.523,6.634,24.69,0,109.9,13.46,6.29,286.7
"2009-10-02 01:25:00",1290697,7.791,332.3,8.79,1.486,8.1,102.4358,5.516,6.483,24.58,0,109.9,13.46,6.29,294.3
"2009-10-02 01:25:30",1290698,10.33,330.7,4.841,1.769,10.04,102.4333,5.51,6.797,24.78,0,109.9,13.46,6.28,292.7
"2009-10-02 01:26:00",1290699,11.35,330.1,5.764,1.093,11.5,102.4336,5.51,6.794,24.59,0,109.9,13.46,6.28,292.1
"2009-10-02 01:26:30",1290700,9.83,334.7,6.098,1.099,11.25,102.4372,5.52,6.811,24.67,0,109.9,13.46,6.29,296.7
"2009-10-02 01:27:00",1290701,8.98,335.8,4.713,0.951,10.48,102.4401,5.527,6.763,24.78,0,109.9,13.46,6.30,297.8
"2009-10-02 01:27:30",1290702,9.03,323.9,7.085,1.563,7.71,102.4418,5.531,6.6,24.45,0,109.9,13.46,6.30,285.9
"2009-10-02 01:28:00",1290703,9.08,318.3,5.455,1.559,7.251,102.4409,5.529,6.493,24.27,0,109.8,13.46,6.30,280.3
"2009-10-02 01:28:30",1290704,9.04,329.2,8.29,1.565,9.06,102.4423,5.533,6.734,24.51,0,109.9,13.46,6.30,291.2
"2009-10-02 01:29:00",1290705,8.75,335.8,7.4,0.937,11.36,102.4423,5.533,6.801,24.53,0,109.9,13.46,6.30,297.8
"2009-10-02 01:29:30",1290706,10.17,337.7,10.61,1.052,11.54,102.4423,5.533,6.792,24.57,0,109.8,13.46,6.30,299.7
"2009-10-02 01:30:00",1290707,9.15,330,5.133,1.291,10.18,102.4423,5.533,6.738,24.48,0,109.8,13.46,6.30,292.0
"2009-10-02 01:30:30",1290708,8.88,337.9,5.552,1.141,9,102.4423,5.533,6.681,24.42,0,109.9,13.46,6.30,299.9
"2009-10-02 01:31:00",1290709,10.17,332.6,11.59,1.486,8.31,102.4423,5.533,6.555,24.26,0,109.8,13.46,6.30,294.6
"2009-10-02 01:31:30",1290710,9.97,336.2,9.76,1.222,8.99,102.4477,5.547,6.711,24.39,0,109.9,13.46,6.32,298.2
"2009-10-02 01:32:00",1290711,10.43,342.3,4.266,1.498,10.63,102.4632,5.586,6.851,24.56,0,109.8,13.46,6.36,304.3
"2009-10-02 01:32:30",1290712,9.8,341.7,4.788,1.018,11.23,102.4709,5.606,6.849,24.6,0,109.8,13.46,6.38,303.7
"2009-10-02 01:33:00",1290713,8.47,333.4,6.768,1.305,9.66,102.476,5.619,6.799,24.59,0,109.8,13.46,6.39,295.4
"2009-10-02 01:33:30",1290714,7.818,340.1,9,1.212,9.11,102.4762,5.619,6.724,24.51,0,109.8,13.46,6.39,302.1
"2009-10-02 01:34:00",1290715,6.176,331.8,7.556,1.478,7.674,102.4762,5.619,6.598,24.37,0,109.8,13.46,6.39,293.8
"2009-10-02 01:34:30",1290716,7.473,332.4,7.45,1.579,8.89,102.4762,5.619,6.815,24.6,0,109.8,13.46,6.39,294.4
"2009-10-02 01:35:00",1290717,7.726,333,6.791,1.406,9.22,102.4762,5.619,6.718,24.46,0,109.8,13.47,6.39,295.0
"2009-10-02 01:35:30",1290718,7.681,334.6,5.59,1.096,9.98,102.4762,5.619,6.863,24.65,0,109.8,13.47,6.39,296.6
"2009-10-02 01:36:00",1290719,7.068,325.7,7.684,0.76,8.28,102.4762,5.619,6.784,24.6,0,109.8,13.47,6.39,287.7
"2009-10-02 01:36:30",1290720,8.65,334.7,12.95,1.348,9.62,102.4762,5.619,6.795,24.64,0,109.8,13.47,6.39,296.7
"2009-10-02 01:37:00",1290721,9.01,336.5,9.89,1.177,9.69,102.4762,5.619,6.794,24.57,0,109.8,13.47,6.39,298.5
"2009-10-02 01:37:30",1290722,9.5,339.9,6.476,1.224,9.53,102.4762,5.619,6.861,24.65,0,109.8,13.47,6.39,301.9
"2009-10-02 01:38:00",1290723,8.79,336.2,8.85,1.53,9.79,102.4762,5.619,6.836,24.61,0,109.8,13.47,6.39,298.2
"2009-10-02 01:38:30",1290724,8.59,341,6.405,1.133,10.64,102.4762,5.619,6.865,24.69,0,109.8,13.47,6.39,303.0
"2009-10-02 01:39:00",1290725,8.1,330.6,3.762,1.032,8.21,102.4762,5.619,6.634,24.46,0,109.8,13.47,6.39,292.6
"2009-10-02 01:39:30",1290726,8.48,333.4,7.61,1.092,8.65,102.4762,5.619,6.825,24.69,0,109.8,13.47,6.39,295.4
"2009-10-02 01:40:00",1290727,8.27,332,8.01,1.496,9.35,102.4762,5.619,6.822,24.82,0,109.8,13.47,6.39,294.0
"2009-10-02 01:40:30",1290728,8.84,341.3,7.82,0.976,10.12,102.4762,5.619,6.85,24.89,0,109.8,13.47,6.39,303.3
"2009-10-02 01:41:00",1290729,8.67,335.8,9.38,1.92,9.54,102.4751,5.617,6.793,24.81,0,109.8,13.47,6.39,297.8
"2009-10-02 01:41:30",1290730,9.5,322,5.855,1.343,10.63,102.4743,5.614,6.868,24.67,0,109.8,13.47,6.39,284.0
"2009-10-02 01:42:00",1290731,7.918,318.7,8.27,1.607,8.89,102.4746,5.615,6.715,24.45,0,109.8,13.47,6.39,280.7
"2009-10-02 01:42:30",1290732,9.49,343.1,10.36,1.969,9.81,102.4751,5.617,6.843,24.65,0,109.8,13.47,6.39,305.1
"2009-10-02 01:43:00",1290733,8.89,334.3,9.37,1.215,9.77,102.4734,5.612,6.775,24.76,0,109.8,13.47,6.38,296.3
"2009-10-02 01:43:30",1290734,9.32,330.3,6.908,1.447,9.37,102.4712,5.606,6.829,24.94,0,109.8,13.47,6.38,292.3
"2009-10-02 01:44:00",1290735,9.42,334,6.167,1.105,9.66,102.468,5.599,6.759,24.87,0,109.8,13.46,6.37,296.0
"2009-10-02 01:44:30",1290736,8.06,329.9,8.34,1.409,8.88,102.4641,5.588,6.752,24.89,0,109.8,13.46,6.36,291.9
"2009-10-02 01:45:00",1290737,7.912,322.7,11.61,1.329,8.65,102.4556,5.567,6.674,24.81,0,109.8,13.46,6.34,284.7
"2009-10-02 01:45:30",1290738,7.213,319.3,7.059,1.137,9.6,102.448,5.547,6.83,24.88,0,109.8,13.46,6.32,281.3
"2009-10-02 01:46:00",1290739,6.619,325.2,5.653,1.508,8.52,102.4426,5.534,6.738,24.75,0,109.8,13.46,6.30,287.2
"2009-10-02 01:46:30",1290740,8.06,331.4,9.44,1.41,9.31,102.4423,5.533,6.808,24.84,0,109.8,13.46,6.30,293.4
"2009-10-02 01:47:00",1290741,8.56,330.1,8.41,1.283,9.21,102.4423,5.533,6.82,24.88,0,109.8,13.46,6.30,292.1
"2009-10-02 01:47:30",1290742,10.16,329.5,6.071,1.227,9.95,102.4423,5.533,6.808,24.89,0,109.8,13.46,6.30,291.5
"2009-10-02 01:48:00",1290743,9.51,333.1,9.57,1.414,10.12,102.4423,5.533,6.804,24.74,0,109.8,13.47,6.30,295.1
"2009-10-02 01:48:30",1290744,8.98,336,7.558,1.292,10.05,102.4423,5.533,6.793,24.83,0,109.8,13.47,6.30,298.0